www.pogodaiklimat.ru

Погода и климат >> Архив погоды >> Россия >> Забайкальский край >> Чита


АРХИВ ПОГОДЫ в Чите

Время (UTC), дата Ветер
(напр.,м/с)
 
Видим.   Явления Облачность Т
(С)
Тd
(С)
f
(%)
Тe
(С)
Тes
(С)
Комфортность P
(гПа)
Po
(гПа)
Тmin
(С)
Tmax
(С)
R
(мм)
R24
(мм)
S
(см)
21 16.05 З 4
{10}
50 км 10/8 600 м
[Cb cap Ac As]
+2.4 -2.6 70 -2 -2 холодно 1000.9 921.8
00 17.05 З 5 10 км слаб. ливневой снег 10/8 600 м
[Cb cap Ac As]
+2.3 -2.1 73 -3 -3 очень
холодно
1001.7 922.4 +2.0 0.0
03 17.05 З 5
{10}
20 км осадки на расстоянии {ливн. осадки} 10/8 600 м
[Cb cap As op]
+3.5 -0.8 73 -1 -1 очень
холодно
1001.9 923.0
06 17.05 З 5
{10}
20 км слаб. ливневой снег 10/8 600 м
[Cb cap As op]
+4.1 -0.5 72 -1 -0 очень
холодно
1003.2 924.4
09 17.05 З 5
{10}
20 км осадки на расстоянии {ливн. осадки} 10/8 600 м
[Cb cap As op]
+4.5 -1.1 67 0 0 очень
холодно
1005.0 926.2
12 17.05 ЮЗ 2 20 км слаб. ливневой дождь 10/8 600 м
[Cb cap Ac As]
+3.4 -1.1 72 +1 +1 очень
холодно
1006.3 927.1 +4.8 0.0
15 17.05 ЮЗ 2 20 км слаб. ливневой дождь 10/8 600 м
[Cb cap Ac As]
+2.5 -0.8 79 -1 -1 очень
холодно
1007.2 927.6
18 17.05 Ю 1 20 км слаб. ливневой дождь 10/8 600 м
[Cb cap Ac As]
+2.5 -1.2 77 +1 +1 по сезону 1007.2 927.6
21 17.05 З 2 20 км слаб. ливневой дождь 10/8 600 м
[Cb cap Ac As]
+2.0 -0.8 82 -1 -1 прохладно 1007.4 927.6
00 18.05 З 2 10 км слаб. ливневой снег 10/8 600 м
[Cb cap Ac As]
+2.7 -0.4 80 -0 0 холодно 1008.8 929.1 +1.7 0.7
03 18.05 СЗ 4 50 км {ливн. осадки} 10/6 600 м
[Cb cap Ac As]
+5.6 -0.1 67 +2 +3 очень
холодно
1009.2 930.3
06 18.05 З 3
{10}
20 км слаб. ливневой дождь 10/10 600 м
[Cb cap]
+4.8 +1.7 80 +1 +1 очень
холодно
1010.8 931.6
09 18.05 ЮЗ 4
{10}
20 км слаб. ливневой дождь 10/8 600 м
[Cb cap Ac As]
+4.5 +2.0 84 0 0 очень
холодно
1011.3 932.0
12 18.05 ЮЗ 3 10 км слаб. ливневой дождь 10/8 600 м
[Cb cap Ac As]
+3.3 +1.6 89 -1 -1 очень
холодно
1012.3 932.6 +6.0 7
15 18.05 Ю 3 11 км слаб. ливневой снег 10/8 600 м
[Cb cap Ac As]
+1.2 +0.2 93 -3 -3 очень
холодно
1013.2 932.8
18 18.05 ЮЗ 4 15 км слаб. ливневой дождь 10/8 600 м
[Cb cap Ac As]
+1.6 +0.5 92 -4 -4 холодно 1012.0 931.8
21 18.05 Ю 1 50 км слаб. ливневой дождь 10/8 600 м
[Cb cap Ac As]
+1.8 +0.6 92 -0 -0 прохладно 1011.4 931.3
00 19.05 ЮЗ 3 50 км {ливн. осадки} 10/8 600 м
[Cb cap Ac As]
+2.9 +1.5 90 -1 -1 холодно 1012.3 932.5 +1.1 7
03 19.05 ЮЗ 4 50 км {ливн. осадки} 10/6 600 м
[Cb cap Ac trans Ci fib]
+5.1 +1.9 80 +1 +3 очень
холодно
1012.7 933.4
06 19.05 ЮЗ 4 50 км {ливн. осадки} 10/4 600 м
[Cb cap Ac trans Ci fib]
+9.5 +2.2 60 +7 +10 очень
холодно
1011.4 933.4
09 19.05 СЗ 3 50 км 6/6 1000 м
[Cu med, cong]
+13.4 -1.3 36 +13 +14 по сезону 1009.5 932.6
12 19.05 СЗ 3
{11}
50 км 6/6 1000 м
[Sc]
+12.3 -2.3 36 +11 +11 прохладно 1010.7 933.4 +14.5 0.0
15 19.05 В 2 50 км 3/1 1000 м
[Cu hum Ci fib]
+4.6 -1.7 64 +2 +2 холодно 1014.1 934.6
18 19.05 В 1 50 км ясно +0.4 -2.1 83 -2 -2 холодно 1015.3 934.5
21 19.05 В 3 50 км 1/0
[Ac lent]
-0.6 -2.3 88 -5 -5 очень
холодно
1015.3 934.2
00 20.05 СЗ 2 50 км ясно +7.9 -3.3 45 +7 +12 по сезону 1012.9 934.3 -1.0
03 20.05 СЗ 5
{11}
50 км 3/3 1000 м
[Cu hum]
+11.4 -3.7 35 +9 +15 прохладно 1010.9 933.4
06 20.05 СЗ 5
{11}
50 км 3/3 1000 м
[Cu hum]
+14.1 -3.4 30 +13 +18 прохладно 1008.6 932.0
09 20.05 СЗ 6-10
{11}
50 км ясно +15.2 -5.0 24 +14 +16 по сезону 1007.3 931.0
12 20.05 СЗ 2
{10}
50 км ясно +12.9 -4.7 29 +13 +13 по сезону 1007.7 930.8 +15.3
15 20.05 В 3 50 км ясно +5.2 -3.5 53 +2 +2 холодно 1010.3 931.2
18 20.05 В 2 50 км ясно +1.5 -3.6 69 -2 -2 холодно 1012.1 931.8
21 20.05 штиль 0 50 км 1/0
[Ac lent]
-0.2 -2.8 83 -1 -1 холодно 1012.5 931.7
00 21.05 ЮЗ 1 50 км 1/0
[Ci fib]
+7.9 -1.7 51 +8 +14 по сезону 1009.9 931.6 -0.6
03 21.05 СЗ 2 50 км 1/0
[Ci fib]
+16.4 -3.2 26 +17 +31 опасность
простуды
1005.9 930.0
06 21.05 СЗ 5
{10}
50 км 3/0
[Ci fib]
+19.9 -4.8 18 +19 +27 тепло 1002.8 928.0
09 21.05 СЗ 6-10
{11}
50 км 4/0
[Ci fib]
+21.7 -4.8 16 +20 +22 тепло 1000.3 926.1
12 21.05 З 1
{10}
50 км 3/0
[Ci fib]
+18.6 -1.7 25 +20 +20 тепло 1000.5 925.6 +21.9
15 21.05 В 1 50 км 3/0
[Ci fib]
+10.0 -0.8 47 +10 +10 по сезону 1002.8 925.6
18 21.05 В 2 50 км 3/0
[Ci fib]
+6.2 -1.1 59 +4 +4 по сезону 1004.0 925.7
21 21.05 штиль 0 50 км 4/0
[Ci fib]
+2.9 -0.7 77 +2 +2 прохладно 1004.7 925.5
00 22.05 ЮЗ 1 50 км 3/0
[Ci fib]
+9.7 +0.7 53 +10 +16 тепло 1002.4 925.2 +2.8
03 22.05 ЮЗ 2 50 км 10/0
[Ac lent Ci sp]
+18.1 -0.2 29 +19 +23 тепло 997.9 923.1
06 22.05 ЮЗ 3 50 км 10/3 1000 м
[Cu hum Ac trans Ci fib]
+24.7 -3.5 15 +23 +27 комфорт 993.8 920.8
09 22.05 ЮВ 2 50 км 10/0
[Ac lent Ci fib]
+26.4 -3.4 14 +24 +26 комфорт 991.8 919.4
12 22.05 ЮВ 3 50 км 4/0
[Ac trans Ci fib]
+24.4 -2.4 17 +23 +23 комфорт 991.5 918.6 +27.2
15 22.05 Ю 1 50 км 10/5 1000 м
[Sc Ac trans Ci fib]
+16.6 +2.9 40 +18 +18 тепло 995.1 920.2
18 22.05 В 1 50 км 10/4 1000 м
[Sc Ac trans Ci fib]
+14.0 +2.5 46 +15 +15 тепло 998.1 922.3
21 22.05 С 1 50 км 10/6 600 м
[Cb cap Ac trans Ci fib]
+15.6 +2.4 41 +16 +16 тепло 999.4 923.9
00 23.05 ЮЗ 1 50 км 6/0
[Ci fib]
+17.8 +3.5 39 +19 +25 тепло 998.3 923.4 +13.8
03 23.05 С 1 50 км 8/0
[Ac trans Ci fib]
+20.1 +1.0 28 +21 +32 комфорт 996.2 922.0
06 23.05 СЗ 2 50 км 10/4 1000 м
[Sc Cs]
+23.9 +2.1 24 +23 +30 комфорт 991.7 918.8
09 23.05 Ю 1 50 км 10/5 600 м
[Cb cap Ac As]
+23.7 +3.5 27 +23 +24 комфорт 989.4 916.6
12 23.05 ЮЗ 3
{10}
50 км 10/4 600 м
[Cb cap Ac trans Ci fib]
+21.9 +5.4 34 +22 +22 комфорт 990.3 917.0 +24.0
15 23.05 С 5 50 км 10/5 600 м
[Cb cap Ac trans Ci fib]
+18.2 +2.1 34 +18 +18 тепло 995.9 921.3
18 23.05 З 6-12
{12}
50 км 10/6 600 м
[Cb cap Ac As]
+13.0 +1.6 46 +11 +11 тепло 1001.8 925.4

 

Местоположение метеостанции Чита (Забайкальский край, Россия): широта 52.08 долгота 113.40 высота над уровнем моря 671 м.

В архиве по умолчанию представлена погода в Чите за последнюю неделю. Архивные данные за месяц целиком и за предыдущие месяцы, начиная с января 2011 года, Вы можете получить, выбрав интересующий диапазон дат из раскрывающегося списка и нажав кнопку "Ввод!".


*Определитесь, кто Вы:
робот инопланетянин человек

Внимание! Время в таблицах - всемирное. Для получения местного времени необходимо прибавить поправку, которая равна 9 ч.

Смотрите также архив погоды в соседних городах и на ближайших метеорологических станциях:

Погода в Бургени (Забайкальский край, Россия) (44 км)
Погода в Беклемишево (Забайкальский край, Россия) (55 км)
Погода в Телембе (Бурятия, Россия) (75 км)
Погода в Карымской (Забайкальский край, Россия) (80 км)
Погода в Курорт-Дарасуне (Забайкальский край, Россия) (100 км)
Погода в Могзоне (Забайкальский край, Россия) (104 км)
Погода в Улетах (Забайкальский край, Россия) (106 км)
Погода в Усть-Зазе (Бурятия, Россия) (117 км)
Погода в Усугли (Забайкальский край, Россия) (132 км)
Погода в Агинском (Забайкальский край, Россия) (133 км)

Пояснения к столбцам:

Ветер - указаны скорость ветра в м/с - средняя за 10 мин, порывы в срок и между сроками (в фигурных скобках) и направление, откуда дует ветер: С - северный, СВ - северо-восточный, В - восточный, ЮВ - юго-восточный, Ю - южный, ЮЗ - юго-западный, З - западный, СЗ - северо-западный.
Видимость - горизонтальная дальность видимости в метрах или километрах. При видимости от 1 до 10 км при отсутствии осадков обычно наблюдается дымка, при ухудшении видимости до 1 км и менее - туман. В сухую погоду видимость может ухудшаться дымом, пылью или мглою.
Явления - указаны атмосферные явления, наблюдавшиеся в срок или в последний час перед сроком; фигурными скобками обозначены явления, наблюдавшиеся между сроками (за 1-3 часа до срока); квадратными скобками обозначены град или гололедные отложения с указанием их диаметра в мм.
Облачность - указаны через наклонную черту общая и нижняя облачность в баллах и высота нижней границы облаков в метрах; квадратными скобками обозначены формы облаков: Ci - перистые, Cs - перисто-слоистые, Cc - перисто-кучевые, Ac - высококучевые, As - высокослоистые, Sc - слоисто-кучевые, Ns - слоисто-дождевые, Cu - кучевые, Cb - кучево-дождевые. Подробнее классификацию облаков см. в Атласе облаков (PDF).
T - Температура воздуха - температура, измеренная на высоте 2 м над землей.
Td - Температура точки росы - температура, при понижении до которой содержащийся в воздухе водяной пар достигнет насыщения.
f - Относительная влажность воздуха - влажноcть воздуха, измеренная на высоте 2 м над землей.
Te - Эффективная температура - температура, которую ощущает одетый по сезону человек в тени. Характеристика душности погоды. При расчете учитывается влияние влажности воздуха и скорости ветра на теплоощущения человека.
Tes - Эффективная температура на солнце - температура, которую ощущает человек, с поправкой на солнечный нагрев. Характеристика знойности погоды. Зависит от высоты солнца над горизонтом, облачности и скорости ветра. Ночью, в пасмурную погоду, а также при ветре 12 м/с и более поправка равна нулю.
P - Атмосферное давление - приведенное к уровню моря атмосферное давление.
Po - Атмосферное давление - измеренное на уровне метеостанции атмосферное давление.
Tmin - Минимальная температура - минимум температуры воздуха на высоте 2 м над землей.
Tmax - Максимальная температура - максимум температуры воздуха на высоте 2 м над землей.
R - Количество осадков - Количество выпавших осадков за период времени, мм. При наведении курсора мыши на число - период времени, за который выпало указанное количество осадков.
R24 - Количество осадков - Количество выпавших осадков за 24 часа, мм.
S - Снежный покров - Высота снежного покрова, см. При наведении курсора мыши на число - состояние снежного покрова и степень покрытия местности в баллах.